Location: Newark
(43.6583°N, 1.6617°E)
Time: 14:09:34
(UTC+00:00)

Tiros 1 - Pass Details

Date: 28 August 2019
Orbit: 630 x 664 km, 48.4° (Epoch: 21 September)

Event Time Altitude Azimuth Distance (km) Brightness Sun altitude
Exits shadow 03:37:55 21° 280° (W) 1,422 8.5 -16.4°
Maximum altitude 03:40:44 49° 214° (SW) 823 7.3 -16.0°
Drops below altitude 10° 03:45:15 10° 140° (SE) 2,033 9.8 -15.3°
Sets 03:47:38 0° 134° (SE) 2,946 10.7 -14.9°
